TimeEDT,TemperatureF,Dew PointF,Humidity,Sea Level PressureIn,VisibilityMPH,Wind Direction,Wind SpeedMPH,Gust SpeedMPH,PrecipitationIn,Events,Conditions,WindDirDegrees,DateUTC
12:53 AM,82.0,75.9,82,30.06,10.0,SW,3.5,-,N/A,,Unknown,220,2013-08-05 04:53:00
1:53 AM,82.0,72.0,71,30.05,10.0,Calm,Calm,-,N/A,,Unknown,0,2013-08-05 05:53:00
2:53 AM,82.0,75.0,79,30.02,10.0,Calm,Calm,-,N/A,,Unknown,0,2013-08-05 06:53:00
3:53 AM,82.0,75.0,79,30.01,10.0,SW,3.5,-,N/A,,Clear,220,2013-08-05 07:53:00
4:53 AM,82.0,75.0,79,30.00,10.0,SW,3.5,-,N/A,,Clear,220,2013-08-05 08:53:00
5:53 AM,81.0,75.0,82,30.00,10.0,SW,3.5,-,N/A,,Clear,230,2013-08-05 09:53:00
6:53 AM,81.0,75.9,85,30.03,10.0,SW,3.5,-,N/A,,Clear,230,2013-08-05 10:53:00
7:53 AM,82.9,78.1,85,30.04,10.0,WSW,3.5,-,N/A,,Clear,250,2013-08-05 11:53:00
8:53 AM,86.0,78.1,77,30.05,10.0,West,8.1,-,N/A,,Clear,280,2013-08-05 12:53:00
9:53 AM,89.1,77.0,67,30.05,10.0,WNW,9.2,-,N/A,,Partly Cloudy,290,2013-08-05 13:53:00
10:53 AM,89.1,75.0,63,30.04,10.0,WNW,6.9,-,N/A,,Mostly Cloudy,300,2013-08-05 14:53:00
11:30 AM,84.2,77.0,79,30.05,0.8,West,11.5,29.9,N/A,Rain,Heavy Rain,280,2013-08-05 15:30:00
11:37 AM,82.4,75.2,79,30.05,10.0,WNW,6.9,29.9,N/A,Rain,Rain,290,2013-08-05 15:37:00
11:50 AM,84.2,73.4,70,30.05,10.0,North,3.5,-,N/A,,Scattered Clouds,360,2013-08-05 15:50:00
11:53 AM,84.0,75.9,76,30.05,10.0,NNE,3.5,-,N/A,,Scattered Clouds,20,2013-08-05 15:53:00
12:53 PM,84.9,77.0,77,30.04,10.0,SE,4.6,-,N/A,,Mostly Cloudy,140,2013-08-05 16:53:00
1:53 PM,86.0,77.0,74,30.02,10.0,SE,4.6,-,N/A,,Mostly Cloudy,130,2013-08-05 17:53:00
2:53 PM,88.0,75.9,67,30.00,10.0,ESE,9.2,-,N/A,,Mostly Cloudy,120,2013-08-05 18:53:00
3:53 PM,89.1,72.0,57,30.00,10.0,West,8.1,-,N/A,,Mostly Cloudy,270,2013-08-05 19:53:00
4:53 PM,87.1,75.0,67,29.98,10.0,WSW,10.4,-,0.00,,Mostly Cloudy,240,2013-08-05 20:53:00
5:53 PM,88.0,75.0,65,29.96,10.0,WSW,10.4,-,N/A,,Mostly Cloudy,250,2013-08-05 21:53:00
6:53 PM,87.1,70.0,57,29.98,10.0,West,11.5,-,N/A,,Mostly Cloudy,270,2013-08-05 22:53:00
7:53 PM,82.9,72.0,69,30.00,10.0,WNW,10.4,-,0.00,Rain,Light Rain,300,2013-08-05 23:53:00
8:53 PM,82.9,73.0,72,30.01,10.0,NW,4.6,-,0.00,,Clear,310,2013-08-06 00:53:00
9:53 PM,82.0,73.9,76,30.00,10.0,NW,4.6,-,N/A,,Clear,310,2013-08-06 01:53:00
10:53 PM,81.0,73.9,79,30.00,10.0,NW,4.6,-,N/A,,Clear,320,2013-08-06 02:53:00
11:53 PM,81.0,75.0,82,30.01,10.0,West,5.8,-,N/A,,Clear,270,2013-08-06 03:53:00